User: anonymous   Login
Location: Unspecified
(0.0000°N, 0.0000°E)
Time: 05:03:42
(UTC+00:00)
Language:

NAVSTAR 65 (USA 213) - Orbit

View from above orbital plane
View from above orbital plane
View from above satellite
View from above satellite

Ground track
Ground track

The orbit data is extracted from the following two-line orbital elements,

1 36585U 10022A   16236.17181005 -.00000069  00000-0  00000+0 0  9998
2 36585  56.0585 352.4344 0054318  43.7885 314.0079  2.00559654 45682
Epoch (UTC): 23 August 2016 04:07:24
Eccentricity: 0.0054318
inclination: 56.0585°
perigee height: 20038 km
apogee height: 20326 km
right ascension of ascending node: 352.4344°
argument of perigee: 43.7885°
revolutions per day: 2.00559654
mean anomaly at epoch: 314.0079°
orbit number at epoch: 4568

The dashed part of the orbit path shows where the satellite is in the earth's shadow,  

DLR